This is the latest recevied weather packets stored in our database for station/object W6MAF. If no packets are shown the sender has not sent any weather packets the latest 10 day(s).
| Time | Temp. | Humidity | Pressure | Rain* | Wind** | Luminosity | Snow |
|---|---|---|---|---|---|---|---|
| 1788102102 | 20.56° C | 42% | - | 0 mm | 4.47 m/s, 211° | - | - |
| 1788101804 | 20.56° C | 43% | - | 0 mm | 4.92 m/s, 226° | - | - |
| 1788101507 | 20° C | 44% | - | 0 mm | 5.81 m/s, 222° | - | - |
| 1788101209 | 20° C | 46% | - | 0 mm | 4.92 m/s, 219° | - | - |
| 1788100911 | 20° C | 47% | - | 0 mm | 4.02 m/s, 194° | - | - |
| 1788100611 | 20° C | 48% | - | 0 mm | 4.47 m/s, 226° | - | - |
| 1788100313 | 20° C | 49% | - | 0 mm | 3.58 m/s, 248° | - | - |
| 1788100015 | 19.44° C | 48% | - | 0 mm | 3.13 m/s, 217° | - | - |
| 1788099718 | 19.44° C | 48% | - | 0 mm | 2.24 m/s, 217° | - | - |
| 1788099420 | 19.44° C | 49% | - | 0 mm | 4.02 m/s, 187° | - | - |
| 1788099122 | 19.44° C | 49% | - | 0 mm | 4.02 m/s, 211° | - | - |
| 1788098821 | 19.44° C | 49% | - | 0 mm | 2.24 m/s, 235° | - | - |
| 1788098524 | 19.44° C | 49% | - | 0 mm | 4.02 m/s, 212° | - | - |
| 1788098226 | 19.44° C | 49% | - | 0 mm | 4.02 m/s, 214° | - | - |
| 1788097928 | 19.44° C | 49% | - | 0 mm | 3.58 m/s, 200° | - | - |
| 1788097631 | 19.44° C | 49% | - | 0 mm | 3.58 m/s, 221° | - | - |
| 1788097333 | 18.89° C | 49% | - | 0 mm | 3.58 m/s, 235° | - | - |
| 1788097032 | 18.89° C | 50% | - | 0 mm | 2.24 m/s, 210° | - | - |
| 1788096734 | 18.89° C | 50% | - | 0 mm | 3.13 m/s, 214° | - | - |
| 1788096437 | 18.89° C | 49% | - | 0 mm | 3.13 m/s, 239° | - | - |
| 1788096139 | 18.89° C | 49% | - | 0 mm | 3.58 m/s, 218° | - | - |
| 1788095841 | 18.89° C | 48% | - | 0 mm | 3.58 m/s, 222° | - | - |
| 1788095544 | 18.89° C | 48% | - | 0 mm | 4.02 m/s, 229° | - | - |
| 1788095243 | 18.89° C | 48% | - | 0 mm | 4.02 m/s, 215° | - | - |
| 1788094946 | 18.89° C | 48% | - | 0 mm | 3.13 m/s, 228° | - | - |
* Rain latest hour (hover to see other rain measurements)
** Current wind speed in m/s (hover to see current wind gust speed)